Simultaneous Nadir Overpasses (SNOs) Predictions

Prediction of SNOs between NOAA-21 and NOAA-19 Satellite Orbit:

Table of predicted SNOs for the next 14.0 days since TLE Epoch: 1/13/2024
Index Date (NOAA-21) Time (NOAA-21) Lat,Lon (NOAA-21) SZA (NOAA-21 ) Date (NOAA-19) Time (NOAA-19) Lat,Lon (NOAA-19) SZA (NOAA-19 ) Distance(km) Time Diff (sec)
1 01/16/2024 19:00:54 73.46,-115.35 94.66 01/16/2024 18:59:45 73.46,-117.49 94.81 67.66 69
2 01/16/2024 19:51:47 -73.92, 50.89 84.84 01/16/2024 19:50:41 -73.93, 50.89 84.82 0.75 66
3 01/16/2024 20:42:33 73.92,-141.80 95.16 01/16/2024 20:41:34 73.92,-141.84 95.18 1.21 59
4 01/16/2024 21:33:17 -73.93, 25.50 84.85 01/16/2024 21:32:39 -73.95, 25.46 84.81 2.81 38
5 01/16/2024 22:24:03 73.93,-167.19 95.15 01/16/2024 22:23:32 73.94,-167.27 95.18 3.13 31
6 01/16/2024 23:14:48 -73.98, -0.01 84.80 01/16/2024 23:14:37 -73.97, 0.02 84.81 1.68 11
7 01/17/2024 00:05:34 73.98, 167.30 95.20 01/17/2024 00:05:30 73.97, 167.30 95.19 1.80 4
8 01/17/2024 00:56:18 -73.99, -25.40 84.80 01/17/2024 00:56:35 -73.99, -25.41 84.80 0.47 17
9 01/17/2024 01:47:04 73.99, 141.90 95.20 01/17/2024 01:47:28 73.99, 141.86 95.19 1.21 24
10 01/17/2024 02:37:47 -74.00, -50.79 84.81 01/17/2024 02:38:32 -74.02, -50.84 84.80 2.58 45
11 01/17/2024 03:28:33 74.00, 116.51 95.19 01/17/2024 03:29:25 74.01, 116.43 95.20 2.95 52
12 01/17/2024 04:19:18 -74.05, -76.31 84.76 01/17/2024 04:20:30 -74.04, -76.27 84.79 1.91 72
13 01/17/2024 05:10:08 74.25, 90.50 95.47 01/17/2024 05:11:20 74.18, 91.38 95.32 27.69 72



Historial Predications of SNOs between NOAA-21 and NOAA-19
